Location: Asheville, NC
(35.6000°N, 82.5500°W)
Time: 02:34:32
(UTC-04:00)

Vanguard 2 - Pass Details

Date: 15 March 2018
Orbit: 553 x 2939 km, 32.9° (Epoch: 20 June)

Event Time Altitude Azimuth Distance (km) Brightness Sun altitude
Rises 14:41:39 0° 272° (W) 6,229 12.4 49.7°
Reaches altitude 10° 14:45:26 10° 272° (W) 5,416 12.2 49.4°
Maximum altitude 15:02:49 79° 189° (S) 2,967 11.7 47.7°
Drops below altitude 10° 15:19:17 10° 106° (ESE) 5,170 11.7 45.8°
Sets 15:22:48 0° 105° (ESE) 5,946 11.9 45.3°
